Regional Weather Roundup
Issued by NWS

Home | Current Version | Previous Version | Graphics & Text | Print | Product List | Glossary Off
Versions: 1 2 3 4 5 6 7 8 9 10 11 12 13 14 15 16 17 18 19 20 21 22 23 24 25 26 27 28 29 30 31 32 33 34 35 36 37 38 39 40 41 42 43 44 45 46 47 48 49 50

000
ASUS43 KMKX 252021
RWRWI

WISCONSIN REGIONAL WEATHER ROUNDUP
NATIONAL WEATHER SERVICE MILWAUKEE/SULLIVAN WI
300 PM CDT THU AUG 25 2016

NOTE: "FAIR" INDICATES FEW OR NO CLOUDS BELOW 12,000 FEET WITH NO
SIGNIFICANT WEATHER AND/OR OBSTRUCTIONS TO VISIBILITY.

WIZ001-002-006>008-014>016-023>028-252100-
NORTHWEST WISCONSIN

CITY           SKY/WX    TMP DP  RH WIND       PRES   REMARKS
SUPERIOR ARPT  CLOUDY    68  55  62 W17G23    29.98R
ASHLAND        PTSUNNY   76  55  48 SW22G29   29.94S
HAYWARD        CLOUDY    72  53  51 W12G24    30.00S
SIREN          CLOUDY    70  53  54 W15       30.03R
CUMBERLAND     MOSUNNY   70  52  52 W17       30.02F
RICE LAKE      MOSUNNY   71  53  52 W14G21    30.03S
CHETEK         NOT AVBL
LADYSMITH      PTSUNNY   74  56  53 W17G23    30.03R
EAU CLAIRE     CLOUDY    77  56  48 W17G24    30.01F
MENOMONIE      CLOUDY    76  53  44 W14       30.03S
NEW RICHMOND   CLOUDY    72  55  54 W16       30.04S
OSCEOLA        PTSUNNY   72  56  56 W15G21    30.06S
$$

WIZ003>005-009-010-017-018-252100-
NORTH CENTRAL WISCONSIN

CITY           SKY/WX    TMP DP  RH WIND       PRES   REMARKS
MANITOWISH WTR NOT AVBL
ARBOR VITAE    CLOUDY    77  57  49 W13G23    29.98S
WOODRUFF       CLOUDY    77  57  49 W13G23    29.98S
RHINELANDER    MOSUNNY   76  58  53 W13G25    29.99S
EAGLE RIVER    PTSUNNY   75  56  50 SW14      29.96F
LAND O LAKES   PTSUNNY   75  54  46 W8G20     29.96F
PHILLIPS       MOSUNNY   73  55  53 SW16G23   29.99S
TOMAHAWK       CLOUDY    74  56  53 SW8G16    30.00S
MEDFORD        CLOUDY    73  58  59 W12G22    30.01S
MERRILL        PTSUNNY   75  59  55 W12G23    30.00S
$$

WIZ029-030-035-036-043>047-252100-
CENTRAL WISCONSIN

CITY           SKY/WX    TMP DP  RH WIND       PRES   REMARKS
WAUSAU         MOSUNNY   77  57  50 W10G25    30.00S
MOSINEE        MOSUNNY   77  57  50 W17G23    30.03S
MARSHFIELD     CLOUDY    77  58  51 W14G21    30.02S
STEVENS POINT  MOSUNNY   76  57  51 W12G22    30.03S
WAUPACA        MOSUNNY   82  60  47 SW10      30.02S HX  82
WAUTOMA        PTSUNNY   79  61  53 W10       30.03F HX  80
WISC RAPIDS    PTSUNNY   79  59  50 W14       30.04S HX  80
CAMP DOUGLAS   PTSUNNY   77  63  61 W12       30.04F
$$

WIZ011>013-019>022-031-037>040-048>050-252100-
NORTHEAST WISCONSIN

CITY           SKY/WX    TMP DP  RH WIND       PRES   REMARKS
ANTIGO         MOSUNNY   75  58  54 W14G22    30.01S
SHAWANO        MOSUNNY   81  57  43 W12G18    29.99S HX  81
OCONTO         NOT AVBL
STURGEON BAY   MOSUNNY   77  58  51 SW14      29.98
GREEN BAY      SUNNY     78  61  55 W14       29.99F HX  80
MANITOWOC      SUNNY     78  57  48 W9        30.00S
APPLETON       PTSUNNY   77  54  44 W12       30.01R
CLINTONVILLE   MOSUNNY   81  54  39 W12G17    30.00S HX  80
OSHKOSH        MOSUNNY   78  59  51 SW8       30.02S
$$

WIZ032>034-041-042-053>061-252100-
SOUTHWEST WISCONSIN

CITY           SKY/WX    TMP DP  RH WIND       PRES   REMARKS
LA CROSSE      CLOUDY    79  60  52 SW10      30.04F HX  80
SPARTA         CLOUDY    77  60  57 SW6       30.05F
VIROQUA        CLOUDY    76  61  60 W9        30.07F
BOSCOBEL       CLOUDY    78  61  55 SW7       30.06F HX  80
PRAIRIE DU CHI CLOUDY    77  60  56 W5        30.06F
PLATTEVILLE    PTSUNNY   75  63  65 NW5       30.07F
$$

WIZ056-057-062-063-064-067-068-252100-
SOUTH CENTRAL WISCONSIN

CITY           SKY/WX    TMP DP  RH WIND       PRES   REMARKS
REEDSBURG      NOT AVBL
BARABOO/DELLS  CLOUDY    76  61  60 SW10      30.06S
LONE ROCK      CLOUDY    77  60  55 NW6       30.06F
MINERAL POINT  CLOUDY    77  59  53 W6        30.08F
MADISON        PTSUNNY   78  58  49 W7        30.05S
MIDDLETON      MOSUNNY   79  60  51 NW7       30.06S HX  80
WATERTOWN      CLOUDY    78  59  51 W5        30.04S
MONROE         PTSUNNY   77  59  53 W6        30.07S
JANESVILLE     PTSUNNY   79  57  47 NW8       30.05  HX  80
$$

WIZ051-052-058>065-066-070>072-252100-
SOUTHEAST WISCONSIN

CITY           SKY/WX    TMP DP  RH WIND       PRES   REMARKS
MILWAUKEE      PTSUNNY   82  62  50 E3        30.02F HX  83
WAUKESHA       SUNNY     75  55  50 W6        30.05S
MILWAUKEE/TIMM SUNNY     81  54  39 NW7       30.03F HX  80
RACINE         SUNNY     82  60  47 W9        30.04S HX  82
BURLINGTON     PTSUNNY   78  59  50 CALM      30.04S HX  80
KENOSHA        CLOUDY    80  62  54 W7        30.03F HX  81
FOND DU LAC    CLOUDY    79  56  45 SW10      30.03S HX  80
SHEBOYGAN      SUNNY     79  57  46 SW10      30.01F HX  80
WEST BEND      MOSUNNY   79  54  41 W5        30.03F
JUNEAU         CLOUDY    77  58  52 SW8       30.05F
$$

LSZ147-162-252100-
LAKE SUPERIOR

STATION/POSITION TIME  TEMP    WIND        PRES    WAVE
                       AIR SEA DIR/SP/G            HT/PER
                 (UTC) (F)     (DEG/KT/KT) (MB)    (FT/S)
W MID LAKE BUOY  1950   69 68  240/ 23/ 27 1011.3S   5/ 6
DEVILS ISLAND    2000   68     250/ 21/ 24 1013.2R
PORT WING        1900   70     270/ 15/ 21 1014.2R
SAXON HARBOR     1940   76     230/ 10/ 14 1013.2S
$$

LMZ867-665-643>646-252100-
LAKE MICHIGAN

STATION/POSITION TIME  TEMP    WIND        PRES    WAVE
                       AIR SEA DIR/SP/G            HT/PER
                 (UTC) (F)     (DEG/KT/KT) (MB)    (FT/S)
CHAMBERS ISLAND  1900   76     200/  7/ 12 1014.2F
S GREEN BAY BUOY 2000   75 73  240/ 12/ 12 1014.6F
N MID LAKE BUOY  1950   71 70  220/ 10/ 12 1013.7S   1/ 5
NORTHPORT PIER   1900   76     220/  5/  9 1014.2F
SISTER BAY       1907   77     230/ 11/ 12   N/A
KEWAUNEE LAKESHO 1900   77     270/  7/  8 1015.1F
SHEBOYGAN LAKESH 2000   77     270/ 10/ 13 1015.4F
PORT WASHINGTON  1900   72     170/  7/  8 1016.9F
ATWATER BUOY     2000   67 47  200/  2/  4   N/A
MILWAUKEE LAKESH 1910   70     100/  2/  2   N/A
S MID LAKE BUOY  1950   73 75  350/  8/ 10 1016.0F   1/ 3
KENOSHA   LAKESH 2000   74     150/  5/  6 1016.3F
$$

TC  - TEMPERATURE IN CELSIUS
VSB - VISIBILITY IN STATUTE MILES
WCI - WIND CHILL INDEX
HX  - HEAT INDEX




USA.gov is the U.S. government's official web portal to all federal, state and local government web resources and services.